Bay Phoenix — A8OE5 — position and weather

sailwx.info

Track history (hours):
 
Tides and Currents Weather Stations Pressure Air Temp Water Temp Dewpoint Dewpoint Depression Visibility Wind Speed Wind Dir Waves Ship Positions

Bay Phoenix

Last reported at 2014-Oct-31 02:33 UTC. Time now 2014-Oct-31 08:30 UTC.
Position N 38°59' W 009°51'.

Length 134 m; draft 4.8 m.

Type: Cargo ship. MMSI: 636015543.

Date/timePositionNaut miles runAvg speedWind from/ knotsBaromVisibWave heightAir tempDewpointWater temp
2014-Oct-31 02:33N 38°59' W 009°51'1817.6
2014-Oct-31 01:33N 38°42' W 009°51'1717.1
2014-Oct-31 00:33N 38°25' W 009°47'1716.8
2014-Oct-30 23:33N 38°08' W 009°42'1817.5
2014-Oct-30 22:33N 37°51' W 009°37'1717.4
2014-Oct-30 21:32N 37°34' W 009°34'1717.6
2014-Oct-30 20:33N 37°17' W 009°27'3417.0
2014-Oct-30 18:33N 36°46' W 009°11'1716.7
2014-Oct-30 17:33N 36°39' W 008°52'3717.2
2014-Oct-30 15:25N 36°28' W 008°09'13316.9
2014-Oct-30 07:33N 35°60' W 005°28'10 9.6
2014-Oct-30 06:32N 36°06' W 005°18'1 1.0
2014-Oct-30 05:32N 36°06' W 005°19'0 0.4
2014-Oct-30 04:33N 36°06' W 005°19'1 0.5
2014-Oct-30 03:24N 36°05' W 005°19'3 3.2
2014-Oct-30 02:30N 36°03' W 005°21'1010.0
2014-Oct-30 01:33N 35°54' W 005°18'0 0.0
2014-Oct-30 00:33N 35°54' W 005°18'0 0.0
2014-Oct-29 23:33N 35°54' W 005°18'0 0.0
2014-Oct-29 22:33N 35°54' W 005°18'0 0.0
2014-Oct-29 21:33N 35°54' W 005°18'0 0.0
2014-Oct-29 20:33N 35°54' W 005°18'0 0.0
2014-Oct-29 19:33N 35°54' W 005°18'1 1.4
2014-Oct-29 18:33N 35°55' W 005°19'  
2014-Oct-26 14:32N 35°43' W 000°38'0 0.0
2014-Oct-25 21:05N 35°43' W 000°38'3 1.0
2014-Oct-25 18:10N 35°46' W 000°38'22316.3
2014-Oct-25 04:27N 35°59' W 005°13'8016.3
2014-Oct-24 23:33N 35°40' W 006°49'1616.4
2014-Oct-24 22:33N 35°33' W 007°07'7016.8
2014-Oct-24 18:22N 35°05' W 008°26'7017.9
2014-Oct-24 14:26N 34°37' W 009°44'5416.6
2014-Oct-24 11:12N 34°15' W 010°44'29316.6
2014-Oct-23 17:33N 32°18' W 016°05'1716.4
2014-Oct-23 16:32N 32°11' W 016°23'1616.4
2014-Oct-23 15:33N 32°05' W 016°41'1716.7
2014-Oct-23 14:33N 31°59' W 016°59'1716.5
2014-Oct-23 13:33N 31°54' W 017°18'1716.7
2014-Oct-23 12:33N 31°48' W 017°36'1716.7
2014-Oct-23 11:33N 31°42' W 017°54'1716.6
2014-Oct-23 10:32N 31°36' W 018°13'1616.5
2014-Oct-23 09:33N 31°30' W 018°31'1816.7
2014-Oct-23 08:29N 31°24' W 018°51'1616.9
2014-Oct-23 07:34N 31°18' W 019°07'  
Track history (hours):
 
Tides and Currents Weather Stations Pressure Air Temp Water Temp Dewpoint Dewpoint Depression Visibility Wind Speed Wind Dir Waves Ship Positions

Bay Phoenix

Last reported at 2014-Oct-31 02:33 UTC. Time now 2014-Oct-31 08:30 UTC.
Position N 38°59' W 009°51'.

Length 134 m; draft 4.8 m.

Type: Cargo ship. MMSI: 636015543.

Date/timePositionNaut miles runAvg speedWind from/ knotsBaromVisibWave heightAir tempDewpointWater temp
2014-Oct-31 02:33N 38°59' W 009°51'1817.6
2014-Oct-31 01:33N 38°42' W 009°51'1717.1
2014-Oct-31 00:33N 38°25' W 009°47'1716.8
2014-Oct-30 23:33N 38°08' W 009°42'1817.5
2014-Oct-30 22:33N 37°51' W 009°37'1717.4
2014-Oct-30 21:32N 37°34' W 009°34'1717.6
2014-Oct-30 20:33N 37°17' W 009°27'3417.0
2014-Oct-30 18:33N 36°46' W 009°11'1716.7
2014-Oct-30 17:33N 36°39' W 008°52'3717.2
2014-Oct-30 15:25N 36°28' W 008°09'13316.9
2014-Oct-30 07:33N 35°60' W 005°28'10 9.6
2014-Oct-30 06:32N 36°06' W 005°18'1 1.0
2014-Oct-30 05:32N 36°06' W 005°19'0 0.4
2014-Oct-30 04:33N 36°06' W 005°19'1 0.5
2014-Oct-30 03:24N 36°05' W 005°19'3 3.2
2014-Oct-30 02:30N 36°03' W 005°21'1010.0
2014-Oct-30 01:33N 35°54' W 005°18'0 0.0
2014-Oct-30 00:33N 35°54' W 005°18'0 0.0
2014-Oct-29 23:33N 35°54' W 005°18'0 0.0
2014-Oct-29 22:33N 35°54' W 005°18'0 0.0
2014-Oct-29 21:33N 35°54' W 005°18'0 0.0
2014-Oct-29 20:33N 35°54' W 005°18'0 0.0
2014-Oct-29 19:33N 35°54' W 005°18'1 1.4
2014-Oct-29 18:33N 35°55' W 005°19'  
2014-Oct-26 14:32N 35°43' W 000°38'0 0.0
2014-Oct-25 21:05N 35°43' W 000°38'3 1.0
2014-Oct-25 18:10N 35°46' W 000°38'22316.3
2014-Oct-25 04:27N 35°59' W 005°13'8016.3
2014-Oct-24 23:33N 35°40' W 006°49'1616.4
2014-Oct-24 22:33N 35°33' W 007°07'7016.8
2014-Oct-24 18:22N 35°05' W 008°26'7017.9
2014-Oct-24 14:26N 34°37' W 009°44'5416.6
2014-Oct-24 11:12N 34°15' W 010°44'29316.6
2014-Oct-23 17:33N 32°18' W 016°05'1716.4
2014-Oct-23 16:32N 32°11' W 016°23'1616.4
2014-Oct-23 15:33N 32°05' W 016°41'1716.7
2014-Oct-23 14:33N 31°59' W 016°59'1716.5
2014-Oct-23 13:33N 31°54' W 017°18'1716.7
2014-Oct-23 12:33N 31°48' W 017°36'1716.7
2014-Oct-23 11:33N 31°42' W 017°54'1716.6
2014-Oct-23 10:32N 31°36' W 018°13'1616.5
2014-Oct-23 09:33N 31°30' W 018°31'1816.7
2014-Oct-23 08:29N 31°24' W 018°51'1616.9
2014-Oct-23 07:34N 31°18' W 019°07'  

Dump ship's entire track history